Theta_e
283 283 282 282 282 282 282 282 282 283 283 283 283 283 283 283 283 283 283 283 283 283 283 283 283 283 283 283 283 284 284 285 285 286 286 287 287 287 287 288 288 288 288 289 289 289 290 290 290 290 289 289 289 288 288 288 288 289 289 289 289 289 289 289 290 290 290 290 290 291 291 292 292 292 292 292 292 292 293 293 293 293 293 293 293 293
282 282 282 282 282 282 282 282 282 283 283 283 283 283 283 283 283 283 283 283 283 283 283 283 283 283 283 283 283 284 284 285 285 286 286 287 287 287 288 288 288 288 289 289 289 289 289 289 289 288 288 288 288 288 288 288 288 289 289 289 289 289 289 289 290 290 290 290 291 291 291 291 292 291 291 291 291 292 292 292 293 293 293 293 293 293
282 282 282 282 282 282 282 282 282 282 283 283 283 283 283 283 283 283 283 283 283 283 283 283 283 283 283 283 283 283 284 285 285 286 286 287 287 287 288 288 288 288 289 289 288 288 288 288 287 287 287 288 288 288 288 288 289 289 289 289 289 289 290 290 290 290 290 291 291 291 291 291 291 291 291 291 291 291 292 292 292 292 292 292 292 292
282 282 282 282 282 282 282 282 282 283 283 283 283 283 283 283 283 283 283 283 283 283 283 283 283 283 283 283 283 284 284 285 285 286 286 287 287 288 288 288 288 288 288 287 287 287 287 287 287 287 287 288 288 288 288 289 289 289 289 289 289 289 289 289 289 290 290 290 290 290 290 290 290 290 290 291 291 291 291 291 291 291 291 291 292 292
282 282 282 282 282 282 282 282 282 283 283 283 283 283 283 283 283 283 283 283 283 283 283 283 283 283 283 283 284 284 284 285 286 286 287 287 287 288 288 287 287 287 287 287 287 287 287 287 287 287 288 288 288 288 288 288 289 289 289 289 289 289 289 289 289 288 288 288 289 289 289 290 290 290 290 291 291 291 291 290 290 290 291 291 291 291
282 282 282 282 282 282 282 282 282 283 283 283 283 283 283 283 283 283 283 283 283 283 283 283 283 283 284 284 284 284 285 285 286 286 287 287 287 287 286 286 286 286 286 286 286 287 287 287 287 287 287 288 288 288 288 288 288 288 288 288 288 288 288 288 287 287 287 288 288 288 289 289 289 290 290 290 290 291 290 290 290 290 290 290 291 291
282 282 282 282 282 282 282 282 282 283 283 283 283 283 283 283 283 283 283 283 283 283 283 283 284 284 284 284 284 285 285 286 286 286 286 286 286 285 285 285 286 286 286 286 286 286 287 287 287 287 287 287 287 287 287 287 287 287 287 287 287 287 287 287 287 287 287 287 287 288 288 288 289 289 289 290 290 290 290 290 290 290 290 290 290 291
282 282 282 282 282 282 282 282 282 283 283 283 283 283 283 283 283 283 283 283 283 283 283 284 284 284 284 284 285 285 285 285 285 285 285 285 285 285 285 285 285 286 286 286 286 286 286 286 286 286 286 286 286 286 286 286 286 286 286 286 286 286 286 286 286 286 287 287 287 287 287 288 288 288 288 289 289 289 289 289 290 290 290 289 289 290
282 282 282 282 282 282 282 282 282 283 283 283 283 283 283 283 283 283 283 283 284 284 284 284 284 284 285 285 285 286 286 285 285 285 284 284 284 285 285 285 285 285 285 286 286 286 286 286 286 286 285 285 285 285 285 285 285 285 285 285 285 285 285 286 286 286 286 286 286 287 287 287 287 287 288 288 288 288 288 289 289 289 289 289 289 290
282 282 282 282 282 282 282 282 282 283 283 283 283 283 283 283 283 283 283 284 284 284 284 284 285 285 285 286 286 286 285 285 285 284 285 285 285 285 285 285 285 285 285 285 285 285 285 285 285 285 285 285 285 285 285 285 285 284 285 285 285 285 285 285 285 285 286 286 286 286 287 287 287 287 287 288 288 288 288 289 289 289 289 289 290 290
282 282 282 282 282 282 282 282 283 283 283 283 283 283 283 283 283 283 283 284 284 284 284 285 285 285 286 286 285 285 285 285 284 284 284 284 284 284 284 284 284 284 284 284 284 284 284 284 284 284 284 284 284 284 284 284 284 284 284 284 284 284 284 285 285 285 285 286 286 286 287 287 287 288 288 288 288 288 288 289 289 289 289 289 290 290
282 282 282 282 282 282 282 283 283 283 283 283 283 283 283 283 283 283 283 284 284 285 285 285 285 286 286 285 285 285 285 284 284 284 284 284 284 284 284 284 284 284 283 283 283 283 283 283 283 283 283 283 283 283 283 283 283 283 283 284 284 284 284 284 285 285 285 286 286 287 287 288 288 288 288 288 288 288 288 288 288 288 289 289 289 290
282 282 282 282 282 283 283 283 283 283 283 284 284 284 284 284 284 284 284 284 284 285 285 285 286 286 285 285 285 285 284 284 284 284 284 284 284 284 284 283 283 283 283 283 283 283 282 283 283 283 283 283 283 283 283 283 283 283 283 283 283 284 284 285 285 285 286 286 287 287 287 287 288 288 287 287 288 288 288 288 289 289 289 289 289 289
282 282 282 283 283 283 283 283 283 284 284 284 284 284 284 284 284 285 285 285 285 285 285 286 285 285 285 285 285 285 284 284 284 284 284 284 284 284 284 283 283 283 283 283 283 282 282 282 282 282 282 282 282 282 282 282 282 282 283 283 284 284 284 285 285 285 286 286 286 286 286 287 287 287 287 287 288 288 288 288 288 289 289 289 289 289
282 283 283 283 283 283 283 283 284 284 284 284 284 284 284 284 285 285 285 285 285 285 285 285 285 285 285 285 285 285 284 284 284 284 284 284 284 284 284 283 283 283 283 283 282 282 282 282 282 282 282 281 281 281 282 282 282 283 283 283 284 284 284 285 285 285 285 286 286 286 286 287 287 287 287 287 288 288 288 288 288 288 288 289 289 289
283 283 283 283 283 283 283 284 284 284 284 285 285 285 285 285 285 285 285 285 285 285 285 285 285 285 285 285 285 285 285 284 284 284 284 284 284 284 284 283 283 283 283 283 282 282 282 282 282 281 281 281 281 282 282 282 283 283 283 284 284 284 284 284 285 285 285 286 286 286 287 287 287 287 287 287 287 287 288 288 288 289 289 289 290 290
283 283 283 283 283 283 283 284 284 285 285 285 285 285 285 285 285 285 285 285 285 285 285 285 285 284 285 285 285 285 285 285 285 284 284 284 284 284 284 283 283 283 282 282 282 282 282 282 281 281 281 281 281 282 282 282 283 283 283 283 284 284 284 284 285 285 285 286 286 287 287 287 287 287 287 287 288 288 288 288 289 289 290 290 290 291
283 283 283 283 283 283 284 284 284 285 285 285 286 286 286 285 285 285 285 285 285 285 285 285 285 285 285 285 285 285 285 285 285 285 285 284 284 284 284 283 283 282 282 282 282 282 281 281 281 281 281 281 281 282 282 282 282 283 283 283 284 284 284 284 285 285 285 286 286 286 286 286 286 287 287 288 288 288 288 288 288 289 290 290 290 291
283 283 283 283 283 283 284 284 285 285 286 286 286 286 286 286 285 285 285 285 285 285 285 285 285 284 284 284 285 285 285 285 285 285 284 284 284 284 283 283 282 282 282 282 281 281 281 281 281 281 281 281 281 282 282 282 282 283 283 283 283 284 284 284 285 285 285 285 286 286 286 286 286 287 287 287 287 288 288 288 288 289 289 290 290 291
283 283 283 283 283 284 284 285 285 286 286 286 286 286 286 286 285 285 285 285 285 285 285 285 284 284 284 285 285 285 285 285 285 284 284 284 284 283 283 282 282 282 282 281 281 281 281 281 281 281 281 281 281 281 282 282 282 282 283 283 283 283 284 284 284 284 285 285 285 286 286 286 286 287 287 287 287 287 287 287 288 289 289 290 290 291
283 283 283 283 284 284 285 285 286 286 286 287 287 286 286 286 285 285 285 285 285 285 285 285 285 284 285 285 285 285 285 285 285 284 284 284 283 283 283 282 282 282 281 281 281 281 281 281 281 281 281 281 281 281 282 282 282 282 283 283 283 283 283 284 284 284 285 285 285 286 286 286 286 286 286 286 286 287 288 288 289 289 290 291 291 292
283 284 284 284 284 285 285 286 286 286 287 287 287 287 286 286 286 286 285 285 285 285 285 285 285 285 285 285 285 285 285 285 285 284 283 283 283 283 282 282 282 282 282 281 281 281 281 281 281 281 281 281 281 281 282 282 282 282 282 282 283 283 283 283 284 284 284 285 285 285 285 285 285 286 286 286 287 287 288 289 289 290 290 291 291 292
284 284 284 284 285 285 285 286 287 287 287 287 287 287 286 286 286 286 286 286 285 285 285 285 285 285 285 285 285 285 285 285 284 283 283 282 282 282 282 282 282 282 282 282 282 281 281 281 281 281 281 281 281 281 282 282 282 282 282 282 282 283 283 283 284 284 284 284 284 285 285 285 285 285 286 286 287 288 288 289 289 289 290 290 291 291
284 285 285 285 285 286 286 287 287 287 287 287 287 287 286 286 286 286 286 286 285 285 285 285 285 285 285 285 285 285 285 284 284 283 282 282 282 282 282 282 282 282 282 282 281 281 281 281 281 281 281 281 281 281 281 281 282 282 282 282 282 282 283 283 283 283 283 284 284 284 284 285 285 285 286 286 287 287 288 288 288 289 289 289 290 290
286 286 286 286 286 287 287 287 287 287 287 287 287 286 286 286 286 286 285 285 285 285 285 285 285 285 285 285 285 285 284 284 283 283 282 282 282 282 282 282 282 282 282 282 281 281 281 281 281 281 281 281 281 281 281 281 281 281 282 282 282 282 282 282 283 283 283 283 283 284 284 284 285 285 286 286 287 287 287 287 287 288 288 289 289 290
288 288 287 287 288 288 288 288 288 288 287 287 287 287 286 286 285 285 285 285 285 285 285 285 285 285 285 285 285 284 284 283 283 283 282 282 282 282 282 282 282 282 282 282 282 282 282 282 281 281 281 281 281 281 281 281 281 281 281 282 282 282 282 282 282 282 282 283 283 283 284 284 284 285 285 286 286 286 286 287 287 287 288 288 289 289
290 289 289 289 289 289 289 289 289 288 288 288 288 288 287 287 286 285 285 285 285 285 285 285 285 285 284 284 284 284 284 283 283 283 282 282 282 282 282 282 282 282 282 282 282 282 282 282 282 281 281 281 280 280 280 280 281 281 281 281 281 281 281 282 282 282 282 282 283 283 283 284 284 285 285 285 286 286 286 286 287 287 288 288 289 289
290 290 290 290 290 290 290 290 290 290 289 290 289 289 289 288 287 287 286 286 286 285 285 285 285 284 284 284 284 284 284 283 283 283 282 282 282 282 282 282 282 282 282 282 282 282 282 282 281 281 281 281 280 280 280 280 281 281 281 281 281 281 281 281 281 282 282 282 283 283 283 284 284 284 285 285 285 285 286 286 286 287 287 288 288 289
289 289 289 289 289 289 290 290 290 290 290 290 290 290 289 289 289 288 287 287 286 286 285 285 284 284 284 284 284 284 283 283 283 282 282 282 282 282 282 282 282 282 282 282 282 282 282 282 281 281 281 281 281 280 280 280 280 280 280 280 280 281 281 281 281 281 282 282 282 283 283 283 284 284 284 284 285 285 285 286 286 287 287 288 288 288
287 287 288 288 288 289 289 289 289 289 289 289 289 289 289 290 290 289 288 288 287 286 285 285 284 284 284 284 283 283 283 283 283 283 282 282 282 282 282 282 282 282 282 282 282 282 282 282 281 281 281 281 281 281 280 280 280 280 280 280 280 280 280 281 281 281 282 282 282 282 283 283 283 283 284 284 284 285 285 286 286 287 287 287 288 288
286 286 286 287 287 287 287 288 288 288 288 288 288 288 288 289 289 289 289 288 287 286 285 284 284 284 284 283 283 283 283 283 283 283 282 282 282 282 282 282 282 282 282 282 282 282 282 282 282 281 281 281 281 281 280 280 280 280 280 280 280 280 280 281 281 281 281 281 282 282 282 282 282 283 283 283 284 284 285 285 286 286 287 287 288 288
285 285 286 286 286 286 286 287 287 287 287 287 287 287 287 288 288 288 288 287 287 286 285 285 284 284 284 283 283 283 283 283 283 283 282 282 282 282 282 282 282 282 282 282 282 282 282 282 282 282 281 281 281 281 281 280 280 280 280 280 280 280 280 280 281 281 281 281 281 281 282 282 282 282 283 283 284 284 285 285 285 286 286 287 288 288
285 285 285 285 286 286 286 286 286 286 286 286 286 286 286 287 287 287 287 287 286 285 285 285 284 284 284 283 283 283 283 283 283 283 283 283 283 283 283 283 282 282 282 282 282 282 282 282 282 281 281 281 281 281 281 281 280 280 280 280 280 280 280 280 280 280 281 281 281 281 281 281 282 282 282 283 283 284 284 285 285 286 286 287 287 288
286 286 286 286 286 286 286 286 286 286 286 285 285 286 286 286 287 287 287 286 286 285 285 285 284 284 283 283 283 283 283 283 283 283 283 283 283 283 283 283 283 283 283 282 282 282 282 282 282 282 281 281 281 281 281 281 280 280 280 280 280 280 280 280 280 280 280 281 281 281 281 281 281 282 282 283 283 283 284 284 285 286 286 286 287 288
286 286 286 286 286 286 286 286 286 286 286 285 285 286 286 286 286 286 286 286 286 285 285 285 284 284 283 283 283 283 283 283 283 283 283 283 283 283 283 283 283 283 283 282 282 282 282 282 282 282 281 281 281 281 281 281 280 280 280 280 280 280 280 280 280 280 281 281 281 281 281 281 281 282 282 282 283 283 284 284 285 285 285 286 286 287
287 286 286 286 286 286 286 286 286 286 286 286 286 286 286 286 286 286 286 286 286 285 285 285 284 284 283 283 283 283 283 283 283 283 283 283 283 283 283 283 283 283 283 282 282 282 282 282 282 282 281 281 281 281 281 281 280 280 280 280 280 280 280 280 280 280 281 281 281 281 281 282 282 282 282 282 283 283 284 284 284 285 285 285 286 286
287 286 286 286 286 286 286 286 286 286 286 286 286 286 286 286 286 286 286 286 286 285 285 284 284 284 283 283 283 283 283 283 283 283 283 283 283 283 283 283 283 282 282 282 282 282 282 282 282 281 281 281 281 281 281 281 281 280 280 280 280 280 280 280 280 281 281 281 281 281 282 282 282 282 282 282 283 283 283 284 284 284 284 285 285 285
286 286 286 286 286 286 286 286 286 286 286 286 286 286 286 286 286 286 286 286 285 285 285 284 284 284 283 283 283 283 283 283 283 283 283 283 283 283 282 282 282 282 282 282 282 282 282 281 281 281 281 281 281 281 281 281 281 280 280 280 280 280 280 280 280 280 281 281 281 281 282 282 282 282 282 282 283 283 283 283 283 283 284 284 284 285
286 286 286 286 286 286 286 286 286 286 286 286 286 286 286 286 286 286 285 285 285 285 284 284 284 283 283 283 283 283 283 283 283 283 283 283 283 283 282 282 282 282 282 282 282 282 281 281 281 281 281 281 281 281 281 281 280 280 280 280 280 280 280 280 280 280 280 281 281 281 281 282 282 282 282 282 283 283 283 283 283 283 284 284 284 284
287 287 287 287 287 287 287 286 286 286 286 286 286 286 286 285 285 285 285 285 285 284 284 284 283 283 283 283 283 283 283 283 283 283 283 283 283 283 283 282 282 282 282 282 282 282 281 281 281 281 281 281 281 281 281 281 281 280 280 281 280 280 280 280 280 280 280 280 281 281 281 281 282 282 282 282 283 283 283 283 283 283 284 284 284 284
287 287 287 287 287 287 287 287 286 286 286 286 286 285 285 285 284 284 284 284 284 284 283 283 283 283 283 283 283 283 283 283 283 283 283 283 283 283 283 282 282 282 282 282 282 281 281 281 281 281 281 281 281 281 281 281 280 281 281 281 280 280 280 280 280 280 280 280 281 281 281 281 282 282 282 282 282 283 283 283 283 283 284 284 284 285
288 288 288 288 287 287 287 287 287 286 286 286 285 285 285 284 284 284 283 283 283 283 283 283 283 282 282 282 283 283 283 283 283 283 283 283 283 283 283 282 282 282 282 282 281 281 281 281 281 281 281 281 281 281 280 280 280 280 280 280 280 280 280 280 280 280 280 280 280 281 281 281 281 282 282 282 282 283 283 283 283 284 284 284 284 284
289 289 288 288 288 287 287 287 286 286 286 285 285 285 284 284 284 284 283 283 283 283 283 283 283 283 283 283 283 283 283 283 283 283 283 283 283 283 283 283 282 282 282 281 281 281 281 281 281 281 281 281 280 280 280 280 280 280 280 280 280 280 280 280 279 280 280 280 280 280 281 281 281 282 282 282 282 283 283 283 284 284 284 284 284 284
289 289 289 288 288 287 287 286 286 286 285 285 284 284 284 284 284 283 283 283 283 283 283 283 283 283 283 283 283 283 283 283 283 283 283 283 283 283 283 283 282 282 282 281 281 281 281 281 281 281 281 280 280 280 280 280 280 280 280 280 279 279 279 279 279 279 280 280 280 280 281 281 281 282 282 282 282 283 283 283 284 284 284 284 284 284
289 289 289 288 288 287 287 286 286 285 285 285 284 284 284 284 284 283 283 283 283 283 283 283 283 283 283 283 283 283 283 283 283 283 283 283 283 283 283 282 282 282 282 281 281 281 280 280 281 280 280 280 280 280 280 280 280 280 280 279 279 279 279 279 279 279 280 280 280 281 281 281 282 282 282 282 283 283 283 283 284 284 284 284 284 284
289 288 288 288 287 287 286 286 285 285 284 284 284 284 284 284 283 283 283 283 283 283 283 283 283 283 283 283 283 283 283 283 283 283 283 283 283 282 282 282 282 282 282 281 281 281 281 280 280 280 280 280 280 280 280 280 280 279 279 279 279 279 279 279 279 279 280 280 280 281 281 282 282 282 283 283 283 283 283 283 284 284 284 284 284 284
288 288 288 287 287 286 286 285 285 284 284 284 284 283 283 283 283 283 283 283 283 283 283 283 283 283 283 283 283 283 283 283 283 283 283 283 283 282 282 282 282 282 282 281 281 281 281 280 280 280 280 280 280 280 280 279 279 279 279 279 279 279 279 279 279 280 280 280 281 281 282 282 282 282 282 282 283 283 283 283 284 284 284 284 284 284
288 287 287 287 286 285 285 285 284 284 284 284 283 283 283 283 283 283 282 282 282 282 282 282 283 283 283 283 283 283 283 283 283 283 283 283 282 282 282 282 282 282 282 281 281 281 281 281 280 280 280 280 280 280 279 279 279 279 279 279 279 279 279 279 280 280 280 280 280 281 281 282 282 282 282 282 282 282 283 283 283 284 284 284 284 284
287 287 286 286 285 285 284 284 284 284 284 283 283 283 283 283 283 283 282 282 282 282 282 282 282 283 283 283 283 283 283 283 283 283 283 283 282 282 282 282 282 282 281 281 281 281 281 281 281 280 280 280 280 279 279 279 279 279 279 279 279 279 279 279 279 279 279 280 280 280 280 280 280 280 280 281 281 282 282 283 283 283 284 284 284 284
287 286 286 285 285 284 284 284 284 283 283 283 283 283 283 283 282 282 282 282 282 282 282 282 282 283 283 283 283 283 283 283 283 283 283 282 282 282 282 282 282 282 281 281 281 281 281 281 281 281 280 280 280 280 279 279 279 279 279 279 279 279 279 279 279 279 279 279 279 279 279 279 279 279 279 280 281 281 282 282 283 283 284 284 284 284
286 286 285 285 285 284 284 284 284 283 283 283 283 283 283 282 282 282 282 282 282 282 282 282 282 282 282 283 283 283 283 283 283 283 282 282 282 282 282 282 282 282 281 281 281 281 281 281 281 281 280 281 281 281 280 280 280 280 279 279 279 279 279 279 279 279 279 279 279 279 278 278 278 279 279 280 280 281 281 282 282 283 283 283 284 284
Wind_Speed
22 22 22 21 21 22 23 24 24 24 25 25 25 24 24 24 24 25 25 25 26 26 27 28 29 30 30 30 29 28 28 28 29 29 29 30 30 31 31 31 32 33 33 34 35 35 36 36 37 37 38 39 39 39 39 40 40 40 40 41 41 41 41 42 42 43 43 44 44 44 44 45 45 45 45 45 44 44 44 44 45 46 46 46 46 45
21 21 21 21 21 22 23 24 23 23 23 24 24 24 24 24 25 26 26 26 26 26 27 27 28 29 29 30 29 28 28 28 28 29 29 29 30 30 30 31 32 33 33 34 35 35 36 37 37 37 38 38 39 39 39 39 39 40 40 40 40 41 41 42 43 43 43 44 44 44 44 44 45 45 45 45 44 44 44 45 46 46 46 46 45 44
19 20 20 20 20 21 23 24 23 23 23 24 25 25 24 25 26 26 26 26 26 26 26 26 27 28 29 30 29 28 28 28 28 28 29 29 29 30 30 31 32 33 34 34 35 35 36 36 37 37 37 38 38 38 39 39 39 40 40 40 41 41 42 42 43 43 43 43 43 43 43 43 44 45 45 45 45 45 45 45 46 46 45 45 44 43
19 19 20 20 20 21 23 24 24 24 24 24 25 25 25 25 26 26 26 26 26 26 26 26 27 28 28 29 29 28 27 27 27 28 28 28 29 29 30 31 32 33 34 34 35 35 36 36 36 36 37 37 37 38 38 39 39 40 40 40 41 41 41 41 41 42 42 42 43 43 43 43 43 44 44 44 44 44 45 45 45 45 44 44 43 43
20 20 20 20 20 21 23 23 23 23 23 23 24 24 24 25 25 25 26 26 26 26 26 26 26 27 27 28 27 27 26 26 27 27 28 28 29 29 30 31 32 33 33 34 34 34 35 35 35 36 36 36 37 37 38 38 39 39 40 40 40 40 40 41 41 42 42 43 43 43 43 43 43 43 43 43 43 43 44 45 45 45 44 43 43 43
20 20 20 19 20 21 21 22 22 22 22 22 23 23 23 24 25 25 25 25 25 25 25 25 26 26 27 27 27 26 26 26 26 27 27 28 28 29 30 31 32 32 33 33 33 34 34 34 35 35 35 36 36 37 37 38 38 38 39 39 39 40 41 41 42 42 42 43 43 43 43 43 43 43 43 42 43 43 44 45 46 46 45 44 43 43
20 20 19 20 20 21 21 21 21 21 20 21 21 22 23 23 24 24 24 25 25 25 25 25 26 26 26 26 26 25 25 25 25 25 26 27 28 29 30 31 31 31 32 32 32 33 33 34 34 34 35 35 36 36 37 37 38 38 39 39 40 40 41 41 41 41 42 42 42 42 42 42 42 42 42 42 43 43 43 44 45 46 46 44 43 43
19 20 19 19 20 20 21 21 21 21 20 20 21 21 22 22 22 23 23 24 24 25 25 25 25 25 25 25 24 24 24 24 24 25 25 27 28 29 30 30 30 30 31 31 32 32 32 33 33 34 34 35 36 36 37 37 38 38 39 39 40 40 40 40 40 41 41 41 41 41 41 42 42 42 41 42 42 42 42 43 44 45 46 45 43 42
20 20 20 20 19 19 20 21 21 21 20 20 21 21 21 21 21 22 22 22 23 23 24 24 24 24 24 23 23 23 23 23 23 25 26 27 29 29 29 29 29 29 30 30 31 31 32 32 33 34 34 35 35 36 36 37 37 38 38 39 39 39 39 39 40 40 40 40 40 40 40 40 41 41 41 41 41 42 42 43 44 45 46 45 43 42
21 20 20 21 20 20 20 20 21 21 20 21 22 22 22 21 21 21 21 22 22 22 22 22 22 23 23 23 22 22 22 23 24 25 27 28 29 29 29 28 28 28 29 29 30 31 32 32 33 33 34 34 35 35 35 36 36 37 37 38 38 38 38 39 39 39 39 39 39 40 40 40 40 40 41 41 42 42 43 44 44 44 45 44 43 43
20 21 20 20 20 21 21 21 21 20 20 20 22 23 23 22 21 20 20 21 21 21 21 21 21 21 22 22 22 22 22 23 25 27 28 28 28 27 26 26 26 27 28 29 30 31 31 32 32 33 33 34 34 34 35 35 35 36 36 37 37 38 38 38 38 39 39 39 39 40 40 40 41 41 42 42 42 43 44 44 44 43 43 42 43 44
19 19 19 19 19 19 20 21 21 20 19 19 19 20 22 22 22 21 20 20 21 21 20 20 21 21 22 22 23 22 23 24 26 27 28 28 27 25 24 25 25 26 27 28 29 30 30 30 31 32 32 32 33 33 34 34 35 36 36 36 37 37 38 38 38 39 39 39 40 41 41 41 41 41 42 42 42 43 44 44 45 44 43 42 43 43
19 18 18 18 18 19 19 19 18 18 18 18 17 17 19 20 21 21 21 21 21 21 21 21 22 23 23 23 22 22 23 24 25 26 27 26 25 24 23 24 25 26 28 29 29 30 30 30 30 30 31 31 32 32 33 34 35 35 36 36 37 37 37 38 39 39 40 40 40 41 41 41 41 41 42 42 43 43 43 44 45 45 44 43 43 43
18 18 17 17 18 18 19 18 17 17 18 18 19 20 20 20 20 20 20 21 22 22 21 21 22 23 23 23 22 22 22 23 24 25 25 25 24 23 23 24 25 27 28 29 29 30 29 29 29 30 30 30 31 32 32 33 34 35 35 36 37 37 38 39 39 39 40 40 40 41 41 41 41 42 42 42 42 42 42 42 43 43 43 43 42 43
17 16 15 15 17 18 19 19 18 19 19 20 21 21 21 21 20 20 19 20 20 20 20 20 21 23 23 23 22 21 21 21 22 22 23 24 24 23 22 24 26 28 28 29 29 29 29 28 29 29 30 30 31 31 32 33 34 35 36 37 37 38 38 39 39 39 40 40 40 40 41 41 41 42 42 42 41 41 41 41 41 41 42 42 42 42
18 17 15 15 16 18 19 19 19 20 21 21 21 21 20 20 20 20 19 19 19 18 17 17 17 19 22 23 21 19 18 19 19 20 22 24 24 24 23 24 26 28 29 28 28 28 28 28 28 29 29 30 30 31 33 34 35 36 37 37 38 38 39 39 39 39 39 39 40 40 41 41 41 41 41 41 41 41 41 42 42 42 43 43 42 42
19 18 17 16 17 18 20 20 20 21 21 21 21 21 21 21 20 20 19 19 18 16 15 13 9 8 13 20 21 18 16 16 17 18 20 23 25 25 24 24 26 27 28 28 28 27 27 28 28 29 29 30 31 32 33 34 36 36 37 38 38 38 39 39 39 39 39 40 40 40 40 40 40 40 40 41 42 43 44 44 44 44 42 42 41 40
19 19 18 17 18 19 20 20 20 21 21 20 21 21 22 22 21 20 20 19 17 15 14 14 11 7 7 13 18 19 17 16 17 18 20 23 26 27 26 25 25 26 27 27 27 27 27 28 28 29 29 30 31 33 34 35 36 36 37 38 38 38 39 39 39 39 39 39 39 39 38 39 39 40 41 42 43 44 43 43 41 40 39 38 37 37
19 20 19 19 20 20 20 20 20 20 20 20 20 20 20 21 21 21 20 19 18 16 16 15 15 15 15 17 21 22 19 17 16 16 19 23 27 28 27 24 24 25 26 27 27 27 27 28 29 29 30 30 31 33 34 35 35 36 37 38 38 38 38 38 38 38 38 38 38 38 38 38 39 39 40 41 41 41 40 40 40 39 38 38 37 37
20 21 21 21 21 20 21 21 22 21 21 21 20 20 20 20 20 20 20 19 19 18 18 17 18 18 20 22 23 22 19 16 15 16 18 23 27 28 26 23 23 24 26 26 27 27 27 28 29 29 29 30 31 32 33 34 35 36 37 38 38 38 38 38 37 37 37 37 37 37 38 38 38 39 39 39 40 40 39 39 39 39 39 38 38 38
22 23 24 23 22 20 21 22 23 23 23 22 21 20 20 19 19 19 19 19 19 20 20 19 20 21 22 22 22 21 19 16 15 15 18 22 25 27 25 22 22 23 25 26 27 27 27 28 28 29 29 30 31 32 34 35 36 37 37 37 38 37 37 37 37 37 36 36 37 37 37 37 38 38 38 38 38 39 39 39 39 39 40 40 40 39
24 25 26 25 24 23 23 24 25 24 23 22 21 20 19 18 18 18 19 19 20 21 21 21 22 23 23 23 23 22 20 17 16 16 17 18 22 26 25 22 21 22 25 26 27 27 27 27 28 29 29 30 31 33 34 35 36 36 37 37 37 36 36 36 36 36 36 36 36 37 37 37 37 37 37 37 38 39 39 40 40 40 40 39 39 38
28 28 28 27 27 27 27 27 26 25 23 22 22 21 20 19 19 20 21 22 22 23 24 24 24 23 23 23 23 22 21 19 17 16 15 12 17 24 24 22 21 22 25 26 27 27 27 28 28 29 29 30 31 33 34 35 35 35 35 35 35 35 35 35 35 35 36 36 37 37 37 37 37 37 37 37 38 39 39 39 39 38 38 38 37 37
32 31 30 29 29 29 29 28 27 26 25 24 23 23 23 23 24 24 24 25 25 24 23 22 21 21 22 23 22 21 20 18 16 15 14 13 18 23 24 22 21 22 25 26 27 27 27 28 29 29 30 31 31 32 33 34 34 34 34 34 34 34 34 35 35 36 36 37 37 37 37 37 37 37 37 37 38 38 38 38 38 38 38 38 38 38
32 32 31 30 30 30 29 28 27 26 26 25 25 25 26 26 27 28 28 27 25 22 20 18 17 18 20 20 19 19 19 17 16 14 14 14 18 22 23 21 21 22 25 26 27 26 27 28 29 30 30 30 31 31 32 32 32 32 33 33 33 34 35 35 36 36 37 37 37 37 37 36 36 36 37 37 37 37 36 36 36 37 37 38 38 39
32 31 31 31 30 29 28 28 27 26 26 25 26 26 27 27 26 26 25 23 21 19 17 15 15 16 18 17 17 18 18 17 15 14 14 14 17 21 23 21 20 21 24 26 27 26 27 28 29 30 30 30 30 30 30 30 31 31 32 33 34 34 35 35 36 36 36 36 36 36 36 36 36 36 36 36 36 36 35 35 35 36 36 37 38 38
33 33 32 32 31 31 30 30 29 28 28 28 27 27 26 25 24 22 21 21 21 19 16 11 9 10 13 14 16 18 18 17 15 15 15 15 17 19 21 21 20 21 23 25 26 26 26 27 28 29 29 29 28 28 29 29 30 31 32 34 34 35 35 35 35 35 35 35 35 35 35 36 36 36 36 35 35 35 35 35 35 35 35 36 35 35
37 36 36 36 36 35 35 35 34 34 33 33 32 30 29 26 23 21 23 25 23 20 16 10 6 5 6 10 15 18 19 18 17 16 16 16 16 17 20 20 20 20 22 24 26 27 26 26 26 27 27 27 27 27 28 29 30 32 33 34 34 34 34 34 33 33 34 34 34 34 35 35 35 35 35 35 35 35 35 34 34 35 34 33 32 31
38 38 38 38 38 38 37 37 37 36 35 35 34 32 31 29 26 24 25 25 22 19 16 13 11 9 9 12 16 18 19 19 18 17 15 14 15 17 19 19 19 20 20 22 24 26 26 25 24 24 25 26 26 27 28 30 31 32 33 33 33 33 32 32 32 32 33 33 34 34 34 34 34 34 35 35 35 34 34 34 34 33 32 30 29 29
34 35 36 36 36 36 35 35 35 35 34 33 32 31 30 30 29 27 24 21 18 16 14 14 14 14 13 12 11 11 15 18 18 15 12 11 12 16 18 19 19 19 19 17 15 15 19 23 24 23 23 24 26 28 29 30 31 31 32 32 32 31 31 30 31 32 32 33 33 33 33 34 34 34 34 34 34 34 33 33 32 31 30 29 29 29
29 30 31 32 32 33 33 33 33 33 32 31 30 29 29 29 29 27 23 19 16 16 16 16 16 16 14 7 3 3 6 15 16 12 11 10 12 16 18 18 19 19 18 14 7 4 10 17 23 26 24 25 27 28 29 29 30 30 31 31 31 31 30 30 30 31 32 32 32 32 32 33 33 33 33 33 33 33 33 32 31 30 29 28 28 28
26 27 27 29 30 31 32 32 32 32 31 31 31 30 30 29 29 27 25 22 20 19 19 18 18 18 16 11 7 6 8 16 18 15 13 12 15 18 19 18 18 19 19 17 12 8 7 7 17 27 28 27 28 28 29 29 29 29 30 30 31 31 31 30 30 31 31 31 31 31 31 32 32 32 32 32 32 32 31 31 30 30 29 28 28 28
24 24 25 26 27 29 30 31 32 32 32 32 32 33 32 31 30 29 28 26 24 23 21 21 19 18 18 18 17 17 19 21 21 18 16 15 16 17 19 18 18 19 19 19 18 16 12 11 17 25 28 29 29 28 29 29 28 28 29 29 30 31 31 31 30 30 30 30 30 30 30 30 30 30 31 31 30 30 30 30 30 30 30 29 28 28
23 23 23 23 24 26 28 30 31 31 32 31 32 32 33 33 32 31 30 29 27 26 24 23 21 20 19 18 19 21 24 24 23 20 18 17 16 17 19 19 19 19 19 18 19 19 18 20 21 22 24 28 30 29 28 28 28 27 28 28 29 30 31 30 30 30 30 29 29 29 28 29 29 29 29 29 29 29 29 29 30 30 30 29 29 29
20 21 21 21 22 23 26 28 29 30 31 31 31 31 31 32 32 32 31 30 29 28 27 26 25 24 22 20 19 20 23 24 23 21 19 18 18 18 19 20 20 19 18 18 18 17 16 20 22 22 21 24 28 29 29 28 27 27 27 27 28 28 30 30 30 29 29 29 28 28 27 27 28 28 27 27 28 28 29 30 30 30 29 29 28 28
19 19 20 20 21 22 23 24 26 27 28 29 30 30 31 31 31 32 32 31 30 29 28 28 28 27 27 26 24 24 25 26 25 23 21 20 20 19 19 20 21 20 19 19 19 17 15 17 21 23 21 19 20 24 29 29 29 28 28 28 28 29 30 29 29 28 28 28 27 27 27 27 27 27 27 27 28 29 29 29 29 28 28 28 28 28
19 20 20 20 21 21 22 23 25 26 27 28 29 30 30 30 31 31 32 31 30 29 28 28 29 29 29 29 29 29 30 29 28 27 26 25 23 22 21 21 22 22 20 19 19 18 17 15 16 18 19 17 16 19 26 30 31 30 30 30 29 29 30 29 28 27 27 27 27 26 26 26 26 27 27 28 28 28 28 27 27 26 27 27 28 28
20 20 21 22 22 23 23 24 25 26 27 27 28 29 30 30 31 31 31 30 29 29 29 29 29 30 31 31 32 33 33 33 32 31 30 29 27 26 24 24 24 24 22 21 20 19 18 12 10 10 9 15 20 24 27 28 29 29 31 31 30 29 28 28 27 26 26 26 26 26 26 25 25 26 26 26 26 26 26 26 26 26 26 27 27 28
20 21 22 22 23 24 24 25 26 26 27 27 28 28 29 29 30 30 29 28 28 28 29 30 30 31 32 32 33 34 34 34 34 33 32 31 30 28 26 25 25 25 25 23 22 21 19 14 11 8 7 12 19 25 27 27 27 28 30 32 31 30 28 27 27 26 26 26 26 25 25 25 25 25 25 25 25 25 25 26 26 26 26 26 27 27
21 21 22 23 24 25 25 25 26 26 27 27 27 27 27 27 27 27 27 27 28 29 30 31 31 32 32 32 33 33 33 33 33 32 32 31 31 29 28 26 26 26 25 23 22 21 20 19 18 18 18 16 17 21 25 27 28 28 30 28 27 28 29 29 28 27 26 25 25 24 24 25 25 24 24 24 24 24 24 25 25 25 25 25 24 25
21 22 23 24 24 25 25 25 25 26 26 26 25 25 25 25 25 24 25 26 27 28 30 30 30 31 31 32 32 32 32 32 32 32 31 31 31 31 30 29 27 26 25 24 22 22 21 20 20 21 21 21 21 23 24 26 28 29 28 26 26 29 31 31 29 27 25 24 24 24 25 25 26 25 25 25 25 24 24 24 25 25 24 23 22 22
22 22 23 23 23 23 24 24 24 24 24 24 24 24 25 25 24 23 23 24 25 26 26 26 26 26 26 28 29 30 30 30 30 31 31 31 31 32 32 30 29 27 25 24 23 23 22 22 21 21 21 21 20 21 22 26 28 28 27 26 28 30 31 30 27 25 24 25 26 26 25 25 25 25 25 25 25 25 25 24 24 23 22 22 21 21
21 21 22 22 21 21 21 20 20 21 21 22 23 24 25 24 24 23 23 22 23 23 23 23 23 22 22 23 24 26 27 28 29 29 29 30 30 30 31 31 30 28 26 23 22 22 23 22 22 21 22 22 21 20 21 24 27 28 28 28 28 26 22 25 27 27 26 27 26 26 25 25 25 25 26 25 25 25 24 24 23 22 21 21 21 21
18 19 19 19 18 18 17 18 18 19 20 21 22 23 24 24 24 23 23 22 23 23 22 22 21 21 21 22 23 24 25 26 27 27 28 28 28 29 29 29 29 29 27 24 22 21 22 22 22 22 22 22 21 21 21 23 25 27 28 28 27 25 22 24 28 29 29 28 27 27 26 26 26 26 27 26 25 24 23 23 22 21 21 21 21 21
18 19 19 18 18 17 17 18 19 20 21 21 21 22 22 23 23 22 22 22 22 22 22 22 20 19 19 20 22 23 23 24 25 25 26 26 27 27 27 28 27 27 26 25 24 22 21 21 22 23 23 22 21 21 22 23 24 26 28 28 27 27 27 28 29 28 27 28 28 28 28 28 28 28 27 26 24 23 22 22 22 22 21 21 21 21
20 20 20 20 20 19 19 20 20 19 19 20 20 21 21 22 22 22 22 22 22 22 22 22 20 18 18 19 20 21 21 21 22 23 24 24 25 25 26 26 26 25 25 25 25 24 23 23 23 23 22 22 22 23 23 24 24 25 26 27 27 27 27 28 27 27 26 27 27 28 28 28 26 25 24 24 25 24 24 22 22 22 22 22 22 22
21 21 21 20 20 20 20 19 18 18 18 18 19 20 20 21 21 21 22 22 22 21 21 21 21 20 20 21 21 20 20 20 21 22 22 23 24 24 25 25 25 24 24 24 24 24 25 25 25 23 22 20 20 22 24 25 24 24 25 26 26 26 26 26 27 27 26 26 27 28 28 27 25 24 25 26 26 26 25 23 22 22 21 21 21 22
20 19 19 19 18 18 18 18 17 17 17 18 19 20 20 20 20 20 21 21 21 21 20 20 20 20 21 22 22 22 21 21 21 22 22 23 24 24 24 24 24 23 23 23 23 23 24 25 25 25 23 21 19 20 23 24 24 24 24 25 25 24 25 26 27 27 26 26 27 27 27 26 25 25 26 27 26 25 25 24 23 22 21 21 21 22
18 18 18 17 17 16 17 17 17 17 18 19 20 20 21 21 20 20 20 20 20 20 20 20 20 20 20 21 22 22 22 21 21 22 22 23 24 24 24 23 22 22 21 21 22 22 23 23 24 23 23 23 22 22 23 24 24 24 24 24 23 23 24 26 27 27 26 27 28 28 27 26 26 26 25 25 24 24 25 25 24 23 21 20 21 22
17 17 17 17 17 17 17 17 17 18 18 19 20 20 21 21 21 20 20 20 20 20 20 21 20 20 20 20 21 22 21 21 21 21 22 23 23 23 23 22 21 20 19 19 19 19 19 19 20 20 20 20 21 22 23 23 23 23 22 23 23 23 24 25 26 27 27 28 28 28 28 27 27 25 23 22 22 23 24 24 24 23 22 21 22 23
18 18 18 18 18 18 18 18 18 18 18 19 20 20 20 20 20 20 20 20 20 21 21 22 22 21 20 20 21 21 21 20 20 21 22 23 24 23 22 21 20 18 15 14 14 13 12 11 12 15 17 17 17 18 20 21 21 20 19 21 22 22 22 24 26 27 28 28 28 28 28 27 26 23 21 20 19 20 20 21 23 23 22 22 22 24
Wind_Direction
252 255 257 258 259 262 264 265 265 266 267 269 270 270 272 272 273 274 276 277 277 278 278 279 280 281 282 282 282 281 282 283 284 285 286 287 288 289 290 291 291 291 291 292 292 292 292 293 293 294 295 295 295 295 294 293 293 292 291 290 289 288 287 287 286 286 285 284 284 283 283 283 283 282 281 280 280 279 279 277 276 275 273 272 271 271
251 254 256 257 258 260 263 264 264 264 265 267 269 270 272 273 274 275 276 277 277 277 278 279 280 280 281 281 281 281 282 282 283 285 286 287 288 289 290 291 291 291 292 292 293 293 294 294 295 295 295 295 294 294 293 292 291 290 289 288 287 287 286 285 285 285 284 284 283 283 283 283 283 282 282 281 280 280 279 278 277 276 274 274 273 273
250 253 255 255 256 257 260 263 264 263 264 266 269 271 272 273 274 275 276 277 278 278 278 278 279 279 280 280 281 281 281 282 283 284 285 287 288 289 290 291 291 292 293 294 294 295 295 295 295 295 294 294 293 293 292 291 290 289 288 288 287 286 286 285 285 285 285 285 285 285 285 284 284 283 282 281 281 279 278 277 276 275 275 274 274 274
249 252 254 256 256 257 259 262 264 265 266 267 269 271 272 272 273 274 275 277 278 278 278 278 278 278 279 280 280 281 282 282 283 284 285 286 287 288 290 291 293 294 294 295 295 295 295 295 295 294 294 293 292 292 291 291 290 290 289 289 288 288 287 287 287 287 287 287 287 287 286 285 284 282 281 280 279 278 277 276 276 275 275 275 274 274
248 250 253 256 258 259 260 263 265 266 267 268 269 269 270 270 271 273 275 276 277 278 279 279 279 278 278 279 280 281 282 283 283 284 285 286 288 289 291 293 294 295 295 295 295 295 295 295 294 294 293 293 293 292 292 292 292 291 291 290 290 290 289 288 288 288 287 287 287 287 286 285 284 282 280 279 278 278 278 277 277 276 275 275 275 275
248 249 253 255 257 260 262 264 265 266 267 267 267 268 268 269 270 271 273 274 276 277 278 278 278 278 278 278 279 281 282 282 283 284 286 287 289 291 293 294 294 295 295 295 295 295 295 295 295 294 294 294 293 293 293 293 293 293 292 292 291 291 290 289 288 288 287 286 286 286 285 285 284 283 282 281 280 279 279 279 279 278 277 276 276 276
250 251 252 255 257 260 262 263 263 263 263 264 266 267 267 268 269 269 270 272 274 276 277 278 278 278 278 278 279 280 281 282 283 284 285 288 290 292 293 294 294 294 294 294 295 295 295 296 296 296 295 295 295 295 294 294 294 294 293 293 292 291 290 290 289 288 287 286 286 285 285 285 285 285 284 283 282 281 281 281 281 281 279 277 276 276
252 253 253 254 257 261 262 262 261 260 259 260 263 265 267 267 268 269 270 272 273 275 276 277 278 278 278 279 279 281 281 282 283 284 287 289 291 293 294 294 294 294 294 294 295 295 296 296 296 296 296 296 296 295 295 295 295 294 293 293 292 291 290 290 289 288 288 287 287 286 286 286 285 285 285 285 284 283 282 282 282 282 280 279 277 276
250 253 254 254 256 259 262 262 261 258 256 257 258 261 264 266 268 270 272 272 273 273 273 275 276 277 278 280 281 282 282 282 283 285 289 291 292 293 294 294 294 294 294 294 295 296 296 296 297 297 296 296 296 295 295 295 295 294 293 293 292 291 291 290 289 289 288 288 288 287 287 287 286 286 285 285 284 283 281 280 280 279 279 279 278 278
246 250 254 255 255 255 258 261 261 259 257 256 256 257 259 262 266 270 272 273 272 272 271 270 273 276 280 282 283 283 283 283 284 286 289 290 291 292 293 293 293 293 294 294 295 296 296 296 296 296 296 295 295 295 295 294 294 294 293 293 292 292 291 291 290 289 289 289 288 288 288 287 285 284 283 282 281 280 279 278 277 277 278 279 279 279
244 247 251 255 256 255 255 257 260 260 259 257 256 255 254 255 258 263 268 271 272 272 270 269 271 276 281 285 286 286 285 286 288 289 289 290 290 291 291 291 292 292 293 294 295 296 296 296 296 296 295 295 294 294 294 294 294 293 293 293 292 292 291 291 290 289 289 288 287 286 285 284 284 283 282 282 281 281 281 280 279 279 279 279 279 278
242 245 248 251 253 254 254 256 257 258 257 254 253 253 252 250 250 253 257 263 268 270 271 273 275 278 281 284 286 288 288 288 289 290 291 291 291 291 292 292 293 293 295 295 296 296 296 296 296 295 294 294 293 293 293 293 293 293 293 292 292 291 290 290 289 288 287 286 286 286 285 285 286 286 286 286 286 286 285 285 285 284 283 281 279 278
240 242 245 247 249 251 252 253 254 254 251 246 244 246 249 250 248 248 251 256 261 266 271 277 280 282 283 284 285 287 288 288 288 289 290 290 291 292 293 294 295 296 297 297 297 296 296 296 295 294 294 293 292 292 293 293 293 293 292 292 291 290 290 289 289 288 288 288 288 289 289 290 290 290 289 289 288 287 287 287 287 287 286 284 282 280
236 238 241 243 245 247 248 248 249 248 246 242 241 243 247 249 249 248 249 253 258 264 271 277 281 284 286 286 286 286 286 286 287 288 288 288 289 291 294 295 296 297 297 297 297 296 296 296 295 294 292 292 291 291 292 292 292 293 292 292 291 291 290 290 290 290 290 290 291 291 291 291 290 289 289 288 287 287 286 286 286 286 286 285 283 281
230 232 236 239 242 243 244 244 245 246 246 244 243 244 247 248 248 246 247 252 258 265 272 277 281 284 286 286 286 286 286 285 285 286 287 287 289 291 294 296 297 297 297 296 296 295 296 295 294 293 292 291 291 291 291 292 293 293 293 293 292 292 291 291 291 291 291 291 291 290 290 289 289 289 289 288 288 286 285 283 283 282 281 280 279 278
226 228 231 236 240 241 242 243 243 245 246 246 245 244 244 245 245 244 246 252 260 267 273 280 284 287 288 288 287 287 286 284 283 284 287 288 290 292 296 297 298 297 296 296 295 295 295 294 293 292 292 291 291 292 292 293 294 294 294 294 293 293 292 292 292 291 291 291 290 290 290 290 290 290 289 288 286 284 282 281 279 278 277 275 274 273
225 227 230 235 239 242 243 243 244 245 246 247 246 244 242 241 242 243 247 253 260 267 271 275 280 289 290 291 290 289 288 286 285 285 287 288 290 293 297 298 297 296 295 294 294 294 295 294 293 292 291 291 291 292 293 294 295 295 295 295 294 294 293 293 293 292 292 292 291 292 292 292 291 290 289 287 286 286 286 285 284 282 280 278 275 273
225 226 229 233 238 242 244 244 245 246 246 246 245 244 242 240 241 243 247 252 257 262 267 271 273 276 283 288 288 289 290 289 287 287 288 289 291 295 298 298 295 293 293 293 293 293 294 293 292 292 291 291 292 293 294 295 296 296 296 296 296 295 295 295 294 294 294 294 294 294 293 292 291 290 290 290 292 293 294 294 293 292 290 288 284 280
225 226 228 232 237 241 243 244 245 245 245 244 243 241 240 240 241 243 247 250 253 257 262 266 270 272 274 278 282 286 289 288 287 288 289 290 293 295 298 298 295 292 291 292 292 294 294 293 292 291 291 292 292 293 294 295 296 297 297 297 297 297 297 296 296 296 295 295 294 294 293 292 292 292 294 295 297 298 298 297 296 295 294 293 290 287
226 227 228 231 235 239 243 244 244 244 245 244 242 239 237 238 240 242 245 248 252 255 258 262 266 269 272 275 279 283 285 286 288 289 290 291 293 295 298 298 296 293 292 292 293 294 295 294 293 292 292 292 293 294 295 296 297 298 298 298 298 298 298 298 297 296 296 295 294 293 293 293 294 296 297 298 297 296 295 294 293 292 291 290 288 286
228 230 230 230 232 237 243 245 246 246 246 244 240 236 235 237 239 241 244 247 251 256 259 262 264 266 269 272 276 279 282 284 287 290 291 292 292 293 296 297 296 293 293 293 295 296 295 294 293 292 292 293 293 294 295 296 297 298 298 299 299 299 299 298 297 296 295 295 294 294 295 296 297 297 297 296 295 293 292 291 290 289 289 287 286 284
229 233 234 232 233 236 242 247 249 248 245 240 234 232 233 235 237 241 244 247 252 257 260 262 264 266 269 271 274 277 279 281 283 286 291 291 291 292 295 297 296 294 293 294 296 297 296 294 293 292 292 293 293 294 295 296 297 298 299 299 300 299 299 298 298 297 297 297 297 297 298 298 298 297 296 294 293 293 292 292 292 292 292 291 289 288
231 236 238 237 236 238 243 247 249 247 242 236 233 234 237 238 240 244 248 252 255 259 263 264 266 268 269 272 274 276 277 278 279 282 286 286 288 291 295 298 297 294 292 294 296 297 296 294 293 292 293 293 294 294 295 296 297 298 299 300 300 300 300 300 299 300 300 300 300 300 299 298 297 296 295 295 295 295 295 296 297 298 298 297 296 294
231 236 239 240 240 241 243 244 244 242 239 238 239 242 245 248 250 252 255 257 258 261 265 266 268 270 271 272 273 273 274 276 277 279 280 281 285 289 293 296 296 293 292 294 296 297 297 295 294 294 294 294 294 294 295 296 297 298 299 300 300 300 301 301 301 302 301 301 301 300 299 298 297 297 297 297 297 298 300 301 301 301 301 301 300 300
229 233 237 239 240 241 241 240 240 240 241 244 249 253 256 258 259 259 259 259 259 260 263 264 266 267 269 269 270 271 273 276 277 275 274 279 284 287 291 294 294 293 292 295 297 298 297 296 296 295 295 294 294 294 295 296 297 298 299 299 300 301 301 302 302 302 301 301 300 299 299 298 298 298 298 299 300 301 302 302 302 302 301 300 300 301
231 233 235 238 240 241 241 242 242 244 247 250 255 258 260 261 260 259 257 256 256 255 255 255 257 259 262 265 268 271 275 278 278 274 271 276 282 286 289 292 293 292 293 296 298 299 298 297 297 296 295 294 294 294 295 297 297 298 299 300 300 301 302 302 302 302 301 300 300 299 299 299 299 299 300 301 302 303 303 303 302 301 301 300 300 300
240 240 242 243 245 246 247 248 249 251 252 253 255 257 259 258 255 253 253 253 250 245 241 242 246 253 257 263 268 273 278 281 279 275 272 275 279 284 287 291 292 292 294 296 298 298 298 297 297 296 296 295 294 294 296 297 298 299 300 300 301 301 302 302 302 301 301 300 300 300 300 300 300 301 301 302 303 303 303 303 303 302 302 301 301 300
247 248 249 250 251 252 253 254 255 256 256 257 257 258 258 255 250 247 250 249 243 234 227 226 232 244 255 265 272 278 281 281 278 275 273 272 274 279 284 289 292 294 295 297 298 298 297 296 295 296 296 296 296 297 297 299 300 301 301 301 301 301 302 302 302 302 301 301 300 300 301 301 301 302 303 303 303 303 303 303 303 303 303 302 302 301
250 251 252 253 253 254 255 256 257 257 257 258 258 259 259 256 252 248 246 242 232 221 218 226 237 249 262 273 279 283 283 279 276 274 271 268 270 276 284 289 293 295 298 299 300 300 299 297 296 297 297 299 300 300 300 301 301 302 302 302 302 302 302 302 302 302 302 301 301 301 302 302 303 303 303 303 303 304 304 304 305 305 304 303 302 301
248 250 251 252 252 254 255 256 256 256 256 257 257 258 258 259 258 257 251 240 227 219 225 236 247 255 265 276 284 286 281 278 275 272 266 264 271 280 287 291 293 294 298 301 302 301 300 301 301 301 301 302 302 302 301 302 302 303 303 303 303 303 303 303 303 303 303 302 302 302 302 302 303 303 304 304 304 304 304 305 306 306 305 304 303 301
244 246 247 249 250 251 252 253 254 254 255 255 255 256 256 258 261 263 262 253 243 238 242 249 256 262 267 273 282 281 278 276 273 269 267 269 276 283 288 290 291 292 295 297 297 299 302 304 305 306 306 305 304 303 302 302 302 303 303 304 304 304 304 305 305 304 303 303 302 302 302 302 303 303 304 304 304 304 305 306 307 307 306 305 303 301
240 241 243 245 246 247 248 249 250 251 252 253 254 254 254 255 258 261 263 261 258 255 254 257 262 267 268 264 259 259 265 271 270 269 270 273 278 282 286 287 288 290 292 291 287 286 295 302 306 307 307 306 305 304 304 303 303 303 303 304 304 304 305 306 306 305 304 303 302 302 302 302 302 303 303 303 304 304 304 306 307 307 307 305 303 302
237 238 240 242 244 245 245 246 248 249 251 252 253 254 254 254 254 255 256 257 258 258 258 261 265 268 267 262 258 258 262 265 267 268 269 271 276 281 284 285 286 289 291 290 287 284 285 288 299 304 306 306 305 305 304 304 303 303 303 304 304 305 306 307 307 306 304 303 302 302 301 302 302 303 303 303 303 304 304 306 307 308 308 307 305 304
234 236 237 239 240 242 244 245 247 248 250 252 253 254 254 253 252 252 252 253 254 256 258 260 261 261 261 259 258 259 261 263 265 266 266 266 270 277 282 284 286 288 291 292 292 290 288 290 295 301 304 305 305 305 304 304 303 303 303 303 304 305 306 307 307 306 304 303 303 302 301 302 303 303 303 303 303 304 305 306 307 308 308 308 308 307
230 232 235 236 238 240 242 244 246 247 249 250 252 252 252 252 251 250 249 250 251 253 256 257 256 254 252 251 253 257 260 262 263 264 265 263 266 273 279 282 285 288 291 292 293 293 292 292 295 299 301 303 304 304 304 304 304 304 303 304 303 304 305 306 307 306 305 304 303 302 302 303 304 304 303 303 304 304 305 306 307 308 308 308 308 308
229 233 236 237 239 240 242 243 244 245 247 248 249 249 249 248 248 247 247 248 249 252 254 255 255 253 249 248 249 253 257 261 264 265 265 264 266 270 276 280 283 287 289 289 290 291 292 293 296 298 300 301 303 304 305 306 306 306 305 305 305 305 306 306 306 306 305 304 304 303 303 304 304 303 303 304 305 305 306 306 307 308 308 308 307 306
231 235 238 240 241 241 242 243 243 244 244 244 245 245 245 245 245 245 246 248 249 251 252 253 253 252 251 250 249 251 256 261 264 265 265 265 266 268 272 277 281 283 284 285 288 290 291 293 296 298 298 298 299 302 305 307 308 308 307 307 307 306 306 307 307 307 306 305 304 304 304 304 304 305 304 305 306 307 307 307 308 308 308 308 308 306
231 236 240 242 243 243 244 244 244 243 242 242 242 242 242 243 244 245 246 248 250 251 252 252 252 252 252 252 252 254 257 260 262 264 265 265 266 267 271 275 278 280 280 281 283 286 290 291 295 295 294 296 297 299 302 305 306 307 307 307 307 306 306 307 308 309 308 306 305 305 304 304 305 305 305 306 307 308 309 309 309 310 311 310 310 308
230 235 240 242 244 244 244 243 242 241 239 239 240 241 242 244 246 246 247 249 251 253 254 254 254 254 255 255 256 257 258 259 261 263 264 265 266 267 269 272 275 277 278 279 280 282 284 285 286 288 291 295 297 299 301 302 303 304 306 308 308 307 307 308 309 309 308 307 306 306 306 306 306 306 305 306 308 308 309 309 310 312 312 313 312 312
231 235 240 243 244 244 242 241 240 239 238 239 240 242 243 245 246 247 249 250 252 254 255 256 257 257 258 258 258 258 258 259 260 262 264 266 267 268 268 268 271 274 277 277 277 277 279 280 282 284 287 290 293 296 299 300 302 304 307 308 308 308 308 309 309 308 308 307 306 307 307 307 307 307 306 306 307 307 307 307 308 309 311 311 312 312
231 236 240 243 244 243 241 239 238 239 239 240 241 242 242 242 243 245 248 250 252 253 255 256 257 258 259 259 259 259 260 260 261 263 265 267 270 270 270 268 268 270 274 275 276 275 276 278 280 283 285 287 290 293 295 297 299 302 304 304 303 304 305 306 307 307 307 307 307 307 307 308 308 307 306 306 305 305 305 304 305 306 307 308 308 308
231 236 239 241 241 239 238 238 239 239 241 241 240 240 239 240 241 243 246 248 250 252 253 254 255 257 259 260 260 261 261 262 263 265 267 269 270 271 270 269 268 268 270 272 273 274 275 276 278 281 283 286 289 291 294 295 298 299 301 300 301 303 305 305 306 307 308 308 308 308 307 307 306 305 305 304 303 303 303 302 302 303 304 305 306 305
230 234 236 236 236 236 237 237 238 238 239 238 238 238 239 240 241 243 245 247 249 251 253 253 254 255 257 259 261 261 262 263 264 265 267 268 269 270 270 270 270 269 268 267 269 272 275 276 277 278 281 285 287 289 291 294 296 298 298 299 301 303 304 304 305 307 308 307 307 307 306 305 304 304 303 302 302 302 302 302 302 302 302 303 304 303
231 234 235 236 237 239 240 240 239 238 237 236 237 239 241 243 244 245 245 247 250 252 253 254 255 255 257 259 261 262 264 264 265 265 266 267 268 269 270 271 271 271 268 264 263 268 274 277 278 279 282 284 286 287 288 290 293 295 296 298 298 297 295 297 301 304 305 305 305 305 305 305 304 304 303 302 301 301 300 301 301 300 301 302 302 302
238 241 243 244 246 246 246 245 244 242 240 239 239 241 244 246 246 246 246 248 251 253 255 255 256 256 257 258 260 263 265 266 266 265 266 266 267 268 268 269 270 270 268 264 262 263 268 273 278 281 283 285 285 284 285 287 290 292 294 295 296 294 292 294 297 299 301 303 304 305 306 306 306 305 304 303 302 302 301 301 301 301 301 302 302 302
244 246 248 249 250 250 248 246 244 242 240 240 242 245 247 249 249 249 249 250 252 254 255 255 254 255 257 259 261 263 264 265 266 266 266 267 268 268 269 269 269 269 268 266 265 265 265 268 273 279 283 285 285 283 282 284 286 288 290 293 294 295 295 296 297 298 299 301 303 305 307 308 308 306 305 305 304 304 303 301 300 301 301 302 302 301
242 244 246 247 247 246 245 243 241 241 242 244 247 249 251 252 252 252 251 252 252 254 255 255 254 254 256 258 260 261 262 263 265 266 267 269 270 271 271 271 271 271 270 269 269 269 268 268 270 273 276 279 282 283 283 282 282 283 285 289 292 294 295 296 297 299 300 302 304 306 309 311 312 310 309 307 306 304 303 301 300 300 300 301 301 301
237 239 241 241 241 240 240 240 240 242 245 248 251 253 255 255 255 255 254 254 254 254 255 256 255 255 256 257 258 258 259 261 263 266 268 270 272 273 274 274 274 274 273 273 273 272 272 272 271 269 268 268 272 276 279 280 280 280 282 286 289 291 293 295 298 300 302 304 305 307 310 313 313 312 311 309 306 304 302 302 301 300 300 300 300 300
234 235 235 235 235 236 238 240 242 245 248 251 255 258 259 259 258 257 257 256 255 255 254 254 255 255 256 257 257 257 257 259 262 265 267 270 272 274 275 276 276 276 277 277 277 277 277 277 275 272 268 263 262 266 271 275 277 278 280 283 285 289 292 295 298 300 303 305 306 308 309 310 310 310 309 307 304 303 302 302 302 302 301 302 302 302
235 234 234 234 235 237 240 243 245 248 251 255 258 261 263 264 262 259 258 257 256 255 254 254 254 255 255 256 256 256 257 259 262 264 267 269 272 274 275 276 277 278 279 280 281 282 282 282 280 277 272 263 259 258 262 268 273 277 280 282 285 288 292 294 297 300 303 305 306 307 308 308 308 307 306 304 302 302 303 303 303 304 305 306 307 306
234 234 234 235 237 240 243 246 248 250 253 256 260 263 265 264 263 260 258 256 255 255 254 254 253 253 253 255 255 256 257 259 262 265 267 269 271 272 273 274 274 276 278 281 283 284 285 286 286 284 280 272 263 257 259 264 272 278 283 285 287 290 292 294 298 301 303 304 305 305 306 306 306 305 304 302 302 303 303 304 305 306 309 311 312 311